www.pogodaiklimat.ru

Погода и климат >> Архив погоды >> Австралия >> Западная Австралия >> Ньюман


ПОГОДА в Ньюмане

  • Прогноз погоды в Ньюмане
  • Монитор погоды в Ньюмане

АРХИВ ПОГОДЫ в Ньюмане

Время (UTC), дата Ветер
(напр.,м/с)
 
Видим.   Явления Облачность Т
(С)
Тd
(С)
f
(%)
Тe
(С)
Тes
(С)
Комфортность P
(гПа)
Po
(гПа)
Тmin
(С)
Tmax
(С)
R
(мм)
R24
(мм)
S
(см)
10 12.06 ЮВ 2 н/о н/о +16.7 -0.9 30 +17 +17 1020.2 959.3
12 12.06 Ю 3 н/о н/о +13.0 -1.3 37 +12 +12 1021.6 960.6
13 12.06 Ю 3 н/о н/о +11.4 -1.0 42 +10 +10 1021.9 960.9 +20.9
15 12.06 Ю 2 н/о н/о +9.0 -0.9 50 +8 +8 1021.6 960.6
16 12.06 ЮВ 2 н/о н/о +8.0 -0.7 54 +7 +7 1021.3 960.4
18 12.06 З 2 н/о н/о +5.7 -1.2 61 +4 +4 1021.0 960.1
19 12.06 З 3 н/о н/о +4.8 -1.8 62 +2 +2 1020.9 960.0
21 12.06 З 3 н/о н/о +3.9 -2.3 64 +1 +1 1020.9 960.0
22 12.06 ЮЗ 3 н/о н/о +3.2 -2.3 67 0 0 1021.2 960.3
00 13.06 штиль 0 н/о н/о +8.3 -0.7 53 +8 +8 1022.6 961.6
01 13.06 ЮВ 1 н/о н/о +13.7 +1.0 42 +14 +14 1023.3 962.2 +2.9
03 13.06 В 4 н/о н/о +18.9 0.0 28 +19 +19 1022.4 961.4
04 13.06 ЮВ 4 н/о н/о +19.6 -0.9 25 +20 +20 1021.6 960.6
06 13.06 Ю 4 н/о н/о +21.3 -1.9 21 +21 +21 комфорт 1019.4 958.6
07 13.06 В 4 н/о н/о +21.2 -3.3 19 +20 +20 1018.8 958.0
09 13.06 ЮВ 4 н/о н/о +20.5 -3.9 19 +20 +20 1019.4 958.6
10 13.06 ЮВ 3 н/о н/о +18.0 -3.4 23 +18 +18 1019.6 958.8
12 13.06 Ю 3 н/о н/о +13.4 -3.4 31 +13 +13 1021.3 960.4
13 13.06 Ю 4 н/о н/о +12.9 -3.0 33 +12 +12 1021.6 960.6 +22.1
15 13.06 ЮВ 2 н/о н/о +10.0 -3.0 40 +9 +9 1021.3 960.4
16 13.06 ЮВ 2 н/о н/о +8.0 -3.5 44 +7 +7 1021.1 960.2
18 13.06 штиль 0 н/о н/о +5.3 -4.3 50 +5 +5 1020.6 959.7
19 13.06 Ю 3 н/о н/о +5.3 -3.5 53 +3 +3 1020.5 959.6
21 13.06 штиль 0 н/о н/о +3.5 -4.7 55 +3 +3 1020.6 959.7
22 13.06 Ю 3 н/о н/о +4.2 -3.1 59 +1 +1 1021.0 960.1
00 14.06 ЮВ 3 н/о н/о +9.4 +0.6 54 +8 +8 1022.2 961.2
01 14.06 В 4 н/о н/о +14.4 +1.3 41 +13 +13 1022.8 961.8 +3.1
03 14.06 В 4 н/о н/о +18.0 -0.8 28 +18 +18 1021.6 960.6
04 14.06 ЮВ 3 н/о н/о +19.4 -0.6 26 +20 +20 1020.4 959.5
06 14.06 СВ 2 н/о н/о +21.4 -2.5 20 +21 +21 комфорт 1018.1 957.4
07 14.06 В 3 н/о н/о +21.8 -2.8 19 +21 +21 комфорт 1017.8 957.1
09 14.06 Ю 4 н/о н/о +20.8 -4.4 18 +20 +20 1018.5 957.7
10 14.06 Ю 2 н/о н/о +17.4 -3.9 23 +18 +18 1019.2 958.4
12 14.06 Ю 3 н/о н/о +13.9 -2.9 31 +13 +13 1020.4 959.5
13 14.06 Ю 3 н/о н/о +12.4 -3.0 34 +11 +11 1020.4 959.5 +22.4
15 14.06 Ю 4 н/о н/о +11.0 -1.7 41 +9 +9 1020.4 959.5
16 14.06 Ю 3 н/о н/о +10.1 -1.6 44 +9 +9 1020.7 959.8
18 14.06 ЮЗ 2 н/о н/о +6.6 -2.5 52 +5 +5 1021.0 960.1
19 14.06 ЮЗ 1 н/о н/о +5.5 -3.6 52 +5 +5 1020.8 959.9
21 14.06 ЮВ 3 н/о н/о +8.2 -0.3 55 +6 +6 1021.3 960.4
22 14.06 В 1 н/о н/о +5.6 -2.0 58 +6 +6 1021.9 960.9
00 15.06 ЮВ 4 н/о н/о +10.7 +0.2 48 +9 +9 1023.0 962.0
01 15.06 ЮВ 6 н/о н/о +14.5 -0.4 36 +13 +13 1023.8 962.7 +3.9
03 15.06 ЮВ 6 н/о н/о +18.2 -0.1 29 +18 +18 1022.8 961.8
04 15.06 ЮВ 5 н/о н/о +19.3 -0.7 26 +19 +19 1021.6 960.6
06 15.06 ЮВ 6 н/о н/о +20.7 -2.4 21 +20 +20 1020.0 959.1
07 15.06 Ю 7 н/о н/о +21.2 -2.6 20 +20 +20 1019.5 958.7
09 15.06 ЮВ 6 н/о н/о +20.2 -2.8 21 +20 +20 1020.1 959.2
10 15.06 ЮВ 3 н/о н/о +18.1 -2.8 24 +18 +18 1020.4 959.5
12 15.06 Ю 2 н/о н/о +12.8 -3.9 31 +12 +12 1021.7 960.7
13 15.06 Ю 3 н/о н/о +11.3 -4.0 34 +10 +10 1022.3 961.3 +22.0
15 15.06 Ю 3 н/о н/о +9.1 -3.4 41 +8 +8 1022.5 961.5
16 15.06 Ю 2 н/о н/о +7.8 -4.0 43 +6 +6 1022.4 961.4
18 15.06 штиль 0 н/о н/о +5.1 -5.5 46 +5 +5 1021.8 960.8
19 15.06 Ю 2 н/о н/о +5.3 -3.2 54 +4 +4 1021.4 960.5
21 15.06 Ю 2 н/о н/о +3.0 -5.9 52 +1 +1 1021.8 960.8
22 15.06 ЮВ 3 н/о н/о +4.1 -3.4 58 +1 +1 1021.9 960.9
00 16.06 ЮЗ 2 н/о н/о +8.0 -2.0 49 +7 +7 1023.6 962.5
01 16.06 В 6 н/о н/о +15.0 -0.7 34 +14 +14 1023.8 962.7 +2.5
03 16.06 В 6 н/о н/о +18.3 -1.5 26 +18 +18 1022.9 961.9
04 16.06 В 6 н/о н/о +19.7 -2.6 22 +19 +19 1022.0 961.0
06 16.06 В 4 н/о н/о +21.6 -4.5 17 +21 +21 комфорт 1020.3 959.4
07 16.06 ЮВ 4 н/о н/о +22.1 -4.9 16 +21 +21 комфорт 1019.8 959.0
09 16.06 ЮВ 4 н/о н/о +21.0 -5.7 16 +21 +21 комфорт 1020.6 959.7
10 16.06 ЮВ 2 н/о н/о +18.2 -5.8 19 +19 +19 1020.7 959.8
12 16.06 Ю 3 н/о н/о +13.1 -6.5 25 +13 +13 1021.2 960.3
13 16.06 Ю 3 н/о н/о +11.3 -6.5 28 +10 +10 1021.9 960.9 +22.8
15 16.06 Ю 2 н/о н/о +8.0 -6.9 34 +7 +7 1021.7 960.7
16 16.06 ЮЗ 1 н/о н/о +7.9 -5.9 37 +8 +8 1021.9 960.9
18 16.06 ЮВ 2 н/о н/о +8.5 -4.3 40 +8 +8 1021.7 960.7
19 16.06 штиль 0 н/о н/о +6.0 -5.6 43 +6 +6 1021.6 960.6
21 16.06 ЮЗ 2 н/о н/о +4.3 -5.7 48 +3 +3 1022.0 961.0
22 16.06 Ю 3 н/о н/о +3.4 -4.8 55 0 0 1022.3 961.3
00 17.06 Ю 2 н/о н/о +9.3 -2.0 45 +8 +8 1023.1 962.1
01 17.06 В 2 н/о н/о +14.7 -1.0 34 +15 +15 1023.5 962.4 +3.2
03 17.06 ЮВ 6 н/о н/о +19.1 -1.4 25 +19 +19 1022.6 961.6
04 17.06 В 6 н/о н/о +20.3 -2.7 21 +20 +20 1021.1 960.2
06 17.06 В 6 н/о н/о +21.8 -3.5 18 +21 +21 комфорт 1019.3 958.5
07 17.06 ЮВ 5 н/о н/о +22.7 -4.4 16 +21 +21 комфорт 1019.1 958.3
09 17.06 ЮВ 5 н/о н/о +21.4 -4.6 17 +20 +20 1019.4 958.6
10 17.06 ЮВ 4 н/о н/о +19.4 -4.1 20 +19 +19 1019.8 959.0
12 17.06 ЮВ 3 н/о н/о +15.0 -3.8 27 +15 +15 1020.9 960.0
13 17.06 ЮВ 3 н/о н/о +14.0 -3.7 29 +14 +14 1021.2 960.3 +23.0
15 17.06 ЮВ 4 н/о н/о +12.8 -2.3 35 +12 +12 1021.7 960.7
16 17.06 ЮВ 2 н/о н/о +11.1 -2.0 40 +11 +11 1021.7 960.7
18 17.06 ЮВ 3 н/о н/о +10.1 -0.7 47 +9 +9 1020.9 960.0
19 17.06 ЮВ 4 н/о н/о +11.8 +0.3 45 +10 +10 1020.4 959.5
21 17.06 ЮВ 3 н/о н/о +10.4 +0.7 51 +9 +9 1020.2 959.3
22 17.06 ЮВ 3 н/о н/о +9.8 +0.7 53 +8 +8 1020.7 959.8
00 18.06 В 3 н/о н/о +13.0 +1.4 45 +12 +12 1021.6 960.6
01 18.06 В 5 н/о н/о +14.6 +1.2 40 +13 +13 1021.7 960.7 +7.0
03 18.06 В 5 н/о н/о +19.2 +1.2 30 +19 +19 1020.3 959.4
04 18.06 В 4 н/о н/о +21.0 +2.3 29 +22 +22 комфорт 1019.1 958.3
06 18.06 В 4 н/о н/о +23.9 +3.2 26 +23 +23 комфорт 1016.7 956.0
07 18.06 В 4 н/о н/о +24.6 +3.8 26 +24 +24 комфорт 1016.3 955.7
09 18.06 ЮВ 4 н/о н/о +23.3 +3.3 27 +23 +23 комфорт 1016.9 956.2
10 18.06 ЮВ 3 н/о н/о +20.5 +2.8 31 +21 +21 комфорт 1017.4 956.7
12 18.06 В 4 н/о н/о +18.3 +2.6 35 +18 +18 1017.9 957.2
13 18.06 ЮВ 4 н/о н/о +17.5 +2.3 36 +17 +17 1018.1 957.4 +24.9
15 18.06 ЮВ 2 н/о н/о +14.8 +1.7 41 +15 +15 1018.6 957.8
16 18.06 ЮВ 4 н/о н/о +15.1 +2.0 41 +14 +14 1017.9 957.2
18 18.06 ЮВ 4 н/о н/о +14.0 +2.6 46 +13 +13 1017.4 956.7
19 18.06 Ю 3 н/о н/о +11.8 +2.0 51 +11 +11 1017.3 956.6
21 18.06 Ю 2 н/о н/о +9.5 +1.7 58 +8 +8 1017.3 956.6
22 18.06 ЮЗ 3 н/о н/о +8.5 +1.4 61 +7 +7 1017.7 957.0
00 19.06 Ю 3 н/о н/о +12.5 +2.4 50 +12 +12 1018.6 957.8
01 19.06 В 3 н/о н/о +15.4 +2.6 42 +15 +15 1018.8 958.0 +8.3
03 19.06 В 3 н/о н/о +20.7 +4.3 34 +22 +22 комфорт 1017.4 956.7
06 19.06 С 2 н/о н/о +24.7 +3.9 26 +24 +24 комфорт 1014.5 954.0
07 19.06 Ю 2 н/о 1/0
[]
+25.5 +4.0 25 +25 +29 комфорт 1014.4 953.9
09 19.06 ЮВ 2 н/о н/о +24.0 +2.8 25 +23 +23 комфорт 1014.7 954.2
10 19.06 Ю 2 н/о 10/0
[]
+22.4 +3.0 28 +22 +22 комфорт 1015.1 954.5

 

Местоположение метеостанции Ньюман (Западная Австралия, Австралия): широта -23.41 долгота 119.80 высота над уровнем моря 524 м.

В архиве по умолчанию представлена погода в Ньюмане за последнюю неделю. Архивные данные за месяц целиком и за предыдущие месяцы, начиная с января 2011 года, Вы можете получить, выбрав интересующий диапазон дат из раскрывающегося списка и нажав кнопку "Ввод!".


*Определитесь, кто Вы:
робот инопланетянин человек

Внимание! Время в таблицах - всемирное. Для получения местного времени необходимо прибавить поправку, которая равна 8 ч.

Смотрите также архив погоды в соседних городах и на ближайших метеорологических станциях:

Погода в Параберду (Западная Австралия, Австралия) (211 км)
Погода в Марбл-баре (Западная Австралия, Австралия) (248 км)
Погода в Телфере (Западная Австралия, Австралия) (311 км)
Погода в Порт-Хедленде Apardoo (Западная Австралия, Австралия) (360 км)
Погода в Микатарре (Западная Австралия, Австралия) (378 км)
Погода в Роборн аэропорту (Западная Австралия, Австралия) (403 км)
Погода в Мандоре (Западная Австралия, Австралия) (423 км)
Погода в Каррате (Западная Австралия, Австралия) (432 км)
Погода в Марди (Западная Австралия, Австралия) (466 км)
Погода в Леинстере (Западная Австралия, Австралия) (502 км)

Пояснения к столбцам:

Ветер - указаны скорость ветра в м/с - средняя за 10 мин, порывы в срок и между сроками (в фигурных скобках) и направление, откуда дует ветер: С - северный, СВ - северо-восточный, В - восточный, ЮВ - юго-восточный, Ю - южный, ЮЗ - юго-западный, З - западный, СЗ - северо-западный.
Видимость - горизонтальная дальность видимости в метрах или километрах. При видимости от 1 до 10 км при отсутствии осадков обычно наблюдается дымка, при ухудшении видимости до 1 км и менее - туман. В сухую погоду видимость может ухудшаться дымом, пылью или мглою.
Явления - указаны атмосферные явления, наблюдавшиеся в срок или в последний час перед сроком; фигурными скобками обозначены явления, наблюдавшиеся между сроками (за 1-3 часа до срока); квадратными скобками обозначены град или гололедные отложения с указанием их диаметра в мм.
Облачность - указаны через наклонную черту общая и нижняя облачность в баллах и высота нижней границы облаков в метрах; квадратными скобками обозначены формы облаков: Ci - перистые, Cs - перисто-слоистые, Cc - перисто-кучевые, Ac - высококучевые, As - высокослоистые, Sc - слоисто-кучевые, Ns - слоисто-дождевые, Cu - кучевые, Cb - кучево-дождевые. Подробнее классификацию облаков см. в Атласе облаков (PDF).
T - Температура воздуха - температура, измеренная на высоте 2 м над землей.
Td - Температура точки росы - температура, при понижении до которой содержащийся в воздухе водяной пар достигнет насыщения.
f - Относительная влажность воздуха - влажноcть воздуха, измеренная на высоте 2 м над землей.
Te - Эффективная температура - температура, которую ощущает одетый по сезону человек в тени. Характеристика душности погоды. При расчете учитывается влияние влажности воздуха и скорости ветра на теплоощущения человека.
Tes - Эффективная температура на солнце - температура, которую ощущает человек, с поправкой на солнечный нагрев. Характеристика знойности погоды. Зависит от высоты солнца над горизонтом, облачности и скорости ветра. Ночью, в пасмурную погоду, а также при ветре 12 м/с и более поправка равна нулю.
P - Атмосферное давление - приведенное к уровню моря атмосферное давление.
Po - Атмосферное давление - измеренное на уровне метеостанции атмосферное давление.
Tmin - Минимальная температура - минимум температуры воздуха на высоте 2 м над землей.
Tmax - Максимальная температура - максимум температуры воздуха на высоте 2 м над землей.
R - Количество осадков - Количество выпавших осадков за период времени, мм. При наведении курсора мыши на число - период времени, за который выпало указанное количество осадков.
R24 - Количество осадков - Количество выпавших осадков за 24 часа, мм.
S - Снежный покров - Высота снежного покрова, см. При наведении курсора мыши на число - состояние снежного покрова и степень покрытия местности в баллах.